This demonstration page uses our WeatherBlox Daily Observations layout. Learn more.

38.89511, -77.03637

Hourly Observations for January 14, 2015

Temp ( °F °C ) Dew Point ( °F °C ) Humidity (%) Winds ( mph kmh ) Pressure ( in mb ) Visibility ( mi km ) Precip ( " mm )
12:52 am 00:52 Cloudy 29 -1.7 11 -11.7 47 47 NNE 9 15 30.5 1033 10 16.0934 0 0
1:52 am 01:52 Cloudy 29 -1.7 12 -11.1 49 49 NNE 8 13 30.49 1033 10 16.0934 0 0
2:52 am 02:52 Cloudy 29 -1.7 12 -11.1 49 49 NNE 9 15 30.47 1032 10 16.0934 0 0
3:52 am 03:52 Cloudy 29 -1.7 13 -10.6 51 51 NNE 12 19 30.45 1031 10 16.0934 0 0
4:34 am 04:34 Cloudy with Light Snow 28 -2 14 -10 55 55 NE 9 15 30.45 1031 6 9.65604 0 0
4:52 am 04:52 Cloudy with Light Snow 27 -2.8 17 -8.3 66 66 NNE 8 13 30.43 1031 4 6.43736 0 0.0254
5:07 am 05:07 Cloudy with Light Snow 27 -3 18 -8 69 69 NNE 10 17 30.42 1030 3 4.82802 0 0.0254
5:41 am 05:41 Cloudy with Light Snow 27 -3 18 -8 69 69 N 9 15 30.42 1030 4 6.43736 0 0.0254
5:48 am 05:48 Cloudy with Light Snow 27 -3 18 -8 69 69 NNE 8 13 30.45 1031 4 6.43736 0 0
5:52 am 05:52 Cloudy with Light Snow 27 -2.8 19 -7.2 72 72 NNE 9 15 30.43 1031 4 6.43736 0 0.0254
6:52 am 06:52 Cloudy with Light Snow 27 -2.8 20 -6.7 75 75 N 8 13 30.42 1030 4 6.43736 0 0.0254
7:12 am 07:12 Cloudy with Light Snow 27 -3 19 -7 74 74 N 9 15 30.42 1030 4 6.43736 0 0
7:34 am 07:34 Cloudy 27 -3 19 -7 74 74 N 9 15 30.39 1029 9 14.48406 0 0.0254
7:52 am 07:52 Cloudy 27 -2.8 19 -7.2 72 72 N 10 17 30.4 1029 10 16.0934 0 0.0254
8:52 am 08:52 Cloudy 28 -2.2 19 -7.2 69 69 N 8 13 30.4 1029 10 16.0934 0 0
9:52 am 09:52 Cloudy 29 -1.7 19 -7.2 66 66 N 8 13 30.39 1029 10 16.0934 0 0
10:52 am 10:52 Cloudy 30 -1.1 19 -7.2 64 64 NNE 8 13 30.37 1028 10 16.0934 0 0
11:52 am 11:52 Cloudy 31 -0.6 20 -6.7 64 64 NNW 8 13 30.34 1027 10 16.0934 0 0
12:52 pm 12:52 Cloudy 31 -0.6 20 -6.7 64 64 NNW 8 13 30.3 1026 10 16.0934 0 0
1:52 pm 13:52 Cloudy 32 0 21 -6.1 64 64 NNW 10 17 30.28 1025 10 16.0934 0 0
2:46 pm 14:46 Cloudy 34 1 21 -6 60 60 N 7 11 30.27 1025 10 16.0934 0 0
2:52 pm 14:52 Cloudy 33 0.6 21 -6.1 61 61 N 7 11 30.27 1025 10 16.0934 0 0
3:52 pm 15:52 Cloudy 33 0.6 21 -6.1 61 61 N 7 11 30.26 1025 10 16.0934 0 0
4:52 pm 16:52 Cloudy 33 0.6 21 -6.1 61 61 NNW 8 13 30.25 1024 10 16.0934 0 0
5:52 pm 17:52 Cloudy 32 0 21 -6.1 64 64 NNW 9 15 30.25 1024 10 16.0934 0 0
6:13 pm 18:13 Cloudy 32 0 21 -6 64 64 N 9 15 30.24 1024 10 16.0934 0 0
6:52 pm 18:52 Cloudy 32 0 21 -6.1 64 64 NNW 7 11 30.25 1025 10 16.0934 0 0
7:52 pm 19:52 Cloudy 32 0 22 -5.6 66 66 N 7 11 30.26 1025 10 16.0934 0 0
8:52 pm 20:52 Cloudy 33 0.6 22 -5.6 64 64 N 7 11 30.26 1025 10 16.0934 0 0
9:14 pm 21:14 Cloudy 34 1 21 -6 60 60 N 5 7 30.27 1025 10 16.0934 0 0
9:52 pm 21:52 Cloudy 33 0.6 22 -5.6 64 64 NNW 5 7 30.25 1024 10 16.0934 0 0
10:19 pm 22:19 Cloudy 34 1 21 -6 60 60 N 7 11 30.24 1024 10 16.0934 0 0
10:52 pm 22:52 Cloudy 33 0.6 22 -5.6 64 64 NW 3 6 30.24 1024 10 16.0934 0 0
11:52 pm 23:52 Cloudy 32 0 22 -5.6 66 66 NW 6 9 30.24 1024 10 16.0934 0 0

Powered by AerisWeather